EW5980 Weather Reports


time (UTC)temp
C
wind
direction
speed
KPH
gust
KPH
rain 1hr
cm
rain 24hr
cm
rain mn
cm
humidity
%
barometer
mb
20260904064546 23 0.0 0.0 0.00 0.00 0.00 30 1014.9
20260904063104 23 0.0 0.0 0.00 0.00 0.00 30 1014.9
20260904061554 23 0.0 0.0 0.00 0.00 0.00 30 1014.9
20260904060105 23 0.0 0.0 0.00 0.00 0.00 29 1014.9
20260904054559 23 0.0 0.0 0.00 0.00 0.00 29 1014.9
20260904053100 23 0.0 0.0 0.00 0.00 0.00 30 1014.9
20260904051602 23 0.0 0.0 0.00 0.00 0.00 31 1014.6
20260904050104 23 0.0 0.0 0.00 0.00 0.00 31 1014.7
20260904044555 23 0.0 0.0 0.00 0.00 0.00 32 1014.4
20260904043054 24 0.0 0.0 0.00 0.00 0.00 32 1014.4
20260904041559 24 0.0 0.0 0.00 0.00 0.00 32 1014.5
20260904040058 24 0.0 0.0 0.00 0.00 0.00 32 1014.5
20260904034555 24 0.0 0.0 0.00 0.00 0.00 33 1014.6
20260904033053 24 0.0 0.0 0.00 0.00 0.00 32 1014.6
20260904031546 25 0.0 0.0 0.00 0.00 0.00 33 1014.4
20260904030058 25 0.0 0.0 0.00 0.00 0.00 33 1014.7
20260904024556 25 0.0 0.0 0.00 0.00 0.00 34 1014.7
20260904023055 25 0.0 0.0 0.00 0.00 0.00 35 1014.7
20260904021558 25 0.0 0.0 0.00 0.00 0.00 37 1014.7
20260904020055 25 0.0 0.0 0.00 0.00 0.00 33 1014.7
20260904014604 25 0.0 0.0 0.00 0.00 0.00 32 1014.6
20260904013057 25 0.0 0.0 0.00 0.00 0.00 30 1014.6
20260904011556 25 0.0 0.0 0.00 0.00 0.00 31 1014.6
20260904010106 26 0.0 0.0 0.00 0.00 0.00 31 1014.5
20260904004548 26 0.0 0.0 0.00 0.00 0.00 32 1014.4
20260904003055 26 0.0 0.0 0.00 0.00 0.00 32 1014.3
20260904001552 26 0.0 0.0 0.00 0.00 0.00 34 1014.3
20260904000057 25 0.0 0.0 0.00 0.00 0.00 35 1014.1
20260903234547 25 0.0 0.0 0.00 0.00 0.00 35 1014.3
20260903233105 25 0.0 0.0 0.00 0.00 0.00 36 1013.9
20260903231554 25 0.0 0.0 0.00 0.00 0.00 38 1013.6
20260903230048 25 0.0 0.0 0.00 0.00 0.00 43 1013.5
20260903224553 25 0.0 0.0 0.00 0.00 0.00 47 1014.0
20260903223052 25 0.0 0.0 0.00 0.00 0.00 57 1014.2
20260903221558 25 0.0 0.0 0.00 0.00 0.00 64 1014.5
20260903220057 25 0.0 0.0 0.00 0.00 0.00 75 1014.5
20260903214556 26 0.0 0.0 0.00 0.00 0.00 79 1015.2
20260903213055 29 0.0 0.0 0.00 0.00 0.00 73 1015.4
20260903211559 30 0.0 0.0 0.00 0.00 0.00 71 1014.1
20260903210114 32 0.0 0.0 0.00 0.00 0.00 65 1013.6
20260903204617 33 0.0 0.0 0.00 0.00 0.00 58 1014.2
20260903203052 33 0.0 0.0 0.00 0.00 0.00 58 1014.1
20260903201600 35 0.0 0.0 0.00 0.00 0.00 56 1014.1
20260903194556 36 0.0 0.0 0.00 0.00 0.00 49 1014.4
20260903193053 37 0.0 0.0 0.00 0.00 0.00 47 1014.3
20260903191559 37 0.0 0.0 0.00 0.00 0.00 47 1014.4
20260903190057 37 0.0 0.0 0.00 0.00 0.00 46 1014.7
20260903184555 37 0.0 0.0 0.00 0.00 0.00 45 1014.8
20260903183054 37 0.0 0.0 0.00 0.00 0.00 46 1015.0
20260903181555 37 0.0 0.0 0.00 0.00 0.00 45 1015.2
20260903180050 37 0.0 0.0 0.00 0.00 0.00 46 1015.4
20260903174558 37 0.0 0.0 0.00 0.00 0.00 49 1015.7
20260903173055 36 0.0 0.0 0.00 0.00 0.00 48 1016.0
20260903171557 36 0.0 0.0 0.00 0.00 0.00 52 1016.2
20260903170100 36 0.0 0.0 0.00 0.00 0.00 53 1016.3
20260903164556 37 0.0 0.0 0.00 0.00 0.00 52 1016.4
20260903163055 36 0.0 0.0 0.00 0.00 0.00 52 1016.7
20260903161553 36 0.0 0.0 0.00 0.00 0.00 52 1016.8
20260903160108 36 0.0 0.0 0.00 0.00 0.00 54 1016.9
20260903154558 35 0.0 0.0 0.00 0.00 0.00 57 1016.8
20260903153057 35 0.0 0.0 0.00 0.00 0.00 58 1016.8
20260903151555 34 0.0 0.0 0.00 0.00 0.00 60 1016.8
20260903150105 34 0.0 0.0 0.00 0.00 0.00 60 1016.8
20260903144606 33 0.0 0.0 0.00 0.00 0.00 63 1016.8
20260903143110 32 0.0 0.0 0.00 0.00 0.00 66 1016.8
20260903141556 31 0.0 0.0 0.00 0.00 0.00 69 1017.0
20260903140111 30 0.0 0.0 0.00 0.00 0.00 74 1017.0
20260903134557 29 0.0 0.0 0.00 0.00 0.00 77 1017.1
20260903133059 28 0.0 0.0 0.00 0.00 0.00 78 1017.1
20260903131601 27 0.0 0.0 0.00 0.00 0.00 78 1017.1
20260903130058 27 0.0 0.0 0.00 0.00 0.00 71 1017.0
20260903124557 26 0.0 0.0 0.00 0.00 0.00 56 1017.0
20260903123056 25 0.0 0.0 0.00 0.00 0.00 58 1016.9
20260903121558 25 0.0 0.0 0.00 0.00 0.00 60 1016.8
20260903120104 25 0.0 0.0 0.00 0.00 0.00 62 1016.7
20260903114554 25 0.0 0.0 0.00 0.00 0.00 62 1016.8
20260903113056 25 0.0 0.0 0.00 0.00 0.00 63 1016.5
20260903111557 25 0.0 0.0 0.00 0.00 0.00 65 1016.2
20260903110052 25 0.0 0.0 0.00 0.00 0.00 67 1016.1
20260903104558 25 0.0 0.0 0.00 0.00 0.00 68 1016.1
20260903103055 25 0.0 0.0 0.00 0.00 0.00 69 1016.1
20260903101556 26 0.0 0.0 0.00 0.00 0.00 70 1015.9
20260903100054 26 0.0 0.0 0.00 0.00 0.00 71 1015.7
20260903094601 26 0.0 0.0 0.00 0.00 0.00 72 1015.8
20260903093119 26 0.0 0.0 0.00 0.00 0.00 73 1015.7
20260903091556 26 0.0 0.0 0.00 0.00 0.00 73 1015.7
20260903090050 26 0.0 0.0 0.00 0.00 0.00 74 1015.7
20260903084556 26 0.0 0.0 0.00 0.00 0.00 74 1015.7
20260903083059 26 0.0 0.0 0.00 0.00 0.00 75 1015.8
20260903081553 26 0.0 0.0 0.00 0.00 0.00 76 1015.9
20260903080104 26 0.0 0.0 0.00 0.00 0.00 77 1015.6
20260903074621 26 0.0 0.0 0.00 0.00 0.00 77 1015.7
20260903073106 26 0.0 0.0 0.00 0.00 0.00 77 1015.7
20260903071607 26 0.0 0.0 0.00 0.00 0.00 78 1015.8
20260903070110 26 0.0 0.0 0.00 0.00 0.00 78 1015.8